Regional Weather Roundup
Issued by NWS

Home | Current Version | Previous Version | Graphics & Text | Print | Product List | Glossary On
Versions: 1 2 3 4 5 6 7 8 9 10 11 12 13 14 15 16 17 18 19 20 21 22 23 24 25 26 27 28 29 30 31 32 33 34 35 36 37 38 39 40 41 42 43 44 45 46 47 48 49 50
000
ASUS43 KMKX 020511
RWRWI

WISCONSIN REGIONAL WEATHER ROUNDUP
NATIONAL WEATHER SERVICE MILWAUKEE/SULLIVAN WI
1200 AM CDT TUE SEP 02 2014

NOTE: "FAIR" INDICATES FEW OR NO CLOUDS BELOW 12,000 FEET WITH NO
SIGNIFICANT WEATHER AND/OR OBSTRUCTIONS TO VISIBILITY.

WIZ001-002-006>008-014>016-023>028-020600-
NORTHWEST WISCONSIN

CITY           SKY/WX    TMP DP  RH WIND       PRES   REMARKS
SUPERIOR ARPT  CLOUDY    55  53  93 CALM      29.75F
ASHLAND        CLEAR     57  52  83 SW7       29.77R
HAYWARD        PTCLDY    53  52  96 CALM      29.79S
SIREN          PTCLDY    59  56  87 SW6       29.79S
RICE LAKE      CLEAR     56  55  95 CALM      29.82S
LADYSMITH      PTCLDY    59  55  87 SW3       29.83R
EAU CLAIRE     CLEAR     60  58  92 SW5       29.81R
MENOMONIE      CLEAR     61  56  84 CALM      29.81S
NEW RICHMOND   CLEAR     58  58  99 CALM      29.80F
OSCEOLA        PTCLDY    58  58 100 SE3       29.81F
$$

WIZ003>005-009-010-017-018-020600-
NORTH CENTRAL WISCONSIN

CITY           SKY/WX    TMP DP  RH WIND       PRES   REMARKS
WOODRUFF       CLEAR     58  54  88 W3        29.80R
RHINELANDER    CLEAR     53  52  96 W5        29.81R
EAGLE RIVER    PTCLDY    52  52 100 CALM      29.79R
LAND O LAKES   CLEAR     54  52  94 CALM      29.79S
PHILLIPS       PTCLDY    55  52  90 CALM      29.80R
TOMAHAWK       CLEAR     51  50  95 CALM      29.82R
MEDFORD        CLEAR     56  54  92 SW3       29.82R
MERRILL        CLEAR     55  54  98 CALM      29.81R
$$

WIZ029-030-035-036-043>047-020600-
CENTRAL WISCONSIN

CITY           SKY/WX    TMP DP  RH WIND       PRES   REMARKS
WAUSAU         CLEAR     60  56  86 NW3       29.81R
MOSINEE        CLEAR     59  55  88 CALM      29.84R
MARSHFIELD     PTCLDY    59  55  87 W6        29.83R
STEVENS POINT  CLEAR     61  56  85 CALM      29.83R
WAUPACA        CLEAR     61  58  92 CALM      29.83R
WAUTOMA        CLEAR     59  58  96 CALM      29.84R
WISC RAPIDS    CLEAR     58  57  97 CALM      29.85R FOG
CAMP DOUGLAS   FOG       55  55 100 SE2       29.85R VSB 1
$$

WIZ011>013-019>022-031-037>040-048>050-020600-
NORTHEAST WISCONSIN

CITY           SKY/WX    TMP DP  RH WIND       PRES   REMARKS
ANTIGO         CLEAR     55  54  94 W3        29.82R
STURGEON BAY   CLEAR     64  57  77 W6        29.79R
GREEN BAY      CLEAR     62  59  90 W6        29.81R
MANITOWOC      CLEAR     65  64  97 CALM      29.81R
APPLETON       CLEAR     61  61 100 SW7       29.83R
CLINTONVILLE   CLEAR     61  57  88 W5        29.81R
OSHKOSH        CLEAR     65  62  90 SW6       29.83R
$$

WIZ032>034-041-042-053>061-020600-
SOUTHWEST WISCONSIN

CITY           SKY/WX    TMP DP  RH WIND       PRES   REMARKS
LA CROSSE      PTCLDY    63  60  90 SE3       29.84R
SPARTA         CLEAR     56  55  97 CALM      29.86R
VIROQUA        FAIR      60  60 100 SW5       29.87R
BOSCOBEL       PTCLDY    63  60  90 CALM      29.86R FOG
PRAIRIE DU CHI CLEAR     62  60  93 CALM      29.85R
PLATTEVILLE    FAIR      65  63  91 CALM      29.88R
$$

WIZ056-057-062-063-064-067-068-020600-
SOUTH CENTRAL WISCONSIN

CITY           SKY/WX    TMP DP  RH WIND       PRES   REMARKS
BARABOO/DELLS  MOCLDY    62  59  90 CALM      29.85R
LONE ROCK      MOCLDY    65  60  84 CALM      29.86R
WATERTOWN      PTCLDY    62  62 100 CALM      29.84S
MADISON        CLOUDY    65  60  84 CALM      29.85R
MIDDLETON      FAIR      64  63  96 CALM      29.86R
MONROE         CLOUDY    64  63  94 W7        29.87R
JANESVILLE     CLOUDY    68  64  88 CALM      29.85S
$$

WIZ051-052-058>065-066-070>072-020600-
SOUTHEAST WISCONSIN

CITY           SKY/WX    TMP DP  RH WIND       PRES   REMARKS
MILWAUKEE      MOCLDY    69  63  81 W5        29.84R
WAUKESHA       PTCLDY    64  61  88 SW5       29.86R
MILWAUKEE/TIMM CLEAR     64  59  82 CALM      29.85R
RACINE         PTCLDY    68  65  90 W5        29.85R
BURLINGTON     PTCLDY    62  62  98 CALM      29.85F
KENOSHA        PTCLDY    67  65  93 CALM      29.85R
FOND DU LAC    CLEAR     63  60  90 SW7       29.84R
SHEBOYGAN      CLEAR     61  59  93 W3        29.82R
WEST BEND      CLEAR     63  59  88 W3        29.84R
JUNEAU         PTCLDY    61  61  99 S3        29.85R
$$

LSZ147-162-020600-
LAKE SUPERIOR

STATION/POSITION TIME  TEMP    WIND        PRES    WAVE
                       AIR SEA DIR/SP/G            HT/PER
                 (UTC) (F)     (DEG/KT/KT) (MB)    (FT/S)
W MID LAKE BUOY  0450   60 57  250/ 10/ 12 1005.7R   1/ 4
DEVILS ISLAND    0500   63     250/ 12/ 13 1006.8S
PORT WING        0400   60     190/  6/  8 1007.5S
SAXON HARBOR     0440   60     190/  7/  9 1007.5S
$$

LMZ867-665-643>646-020600-
LAKE MICHIGAN

STATION/POSITION TIME  TEMP    WIND        PRES    WAVE
                       AIR SEA DIR/SP/G            HT/PER
                 (UTC) (F)     (DEG/KT/KT) (MB)    (FT/S)
N MID LAKE BUOY  0450   66 65  270/  4/  4 1007.4R   2/ 6
NORTHPORT PIER   0400   66     270/  2/  5 1007.5R
KEWAUNEE LAKESHO 0400   66     290/  3/  5 1007.5R
SHEBOYGAN LAKESH 0500   66 49  260/  8/ 10 1009.6R
ATWATER BUOY     0400   67     270/  6/  8 1010.9R
MILWAUKEE LAKESH 0400   71     280/  6/  8   N/A
S MID LAKE BUOY  0450   71 70  260/ 12/ 14 1009.9R   2/ 4
KENOSHA   LAKESH 0500   70     250/  5/  8 1010.2S
$$

TC  - TEMPERATURE IN CELSIUS
VSB - VISIBILITY IN STATUTE MILES
WCI - WIND CHILL INDEX
HX  - HEAT INDEX



USA.gov is the U.S. government's official web portal to all federal, state and local government web resources and services.